Location: Bruderhein
(53.8035°N, 112.9265°W)
Time: 10:49:56
(UTC+00:00)

DIWATA 2B (PO-101) - Pass Details

Date: 29 March 2023
Orbit: 581 x 593 km, 98.0° (Epoch: 29 May)

Event Time Altitude Azimuth Distance (km) Brightness Sun altitude
Exits shadow 11:05:35 14° 302° (WNW) 1,681 ? -18.3°
Drops below altitude 10° 11:06:32 10° 313° (NW) 1,911 ? -18.1°
Sets 11:09:20 0° 333° (NNW) 2,818 ? -17.8°
